ETD3265 EGCC-LGKR

Flight info

Callsign ETD3265
Flight time 2h 53m
Altitude 39000
Route DESIG L603 DOLAS DCT NAVPI DCT NOLRU DCT DOJOH DCT DODEN DCT NEGIX DCT DINKU M867 XERUM DCT BAVAX DCT RADIZ DCT DEGUM DCT DABAR DCT PALEZ DCT DIGOT DCT NUPSO DCT OKLAX DCT SPL DCT RILIM DCT AIOSA DCT ENOXA DCT KAPPO DCT TIGRA
Aircraft A346/H-SDE2E3FGHIJ3J4J5M1RWXY/LB1D1

Departure

Time 2026-05-06 11:27
Airport Manchester Airport (EGCC)

Arrival

Time 2026-05-06 14:21
Airport Corfu Ioannis Kapodistrias International Airport (LGKR)
Time Latitude Longitude Altitude Speed Heading
2026-05-06 11:02 53.36632 -2.28253 263 ft 0 kts 314°
2026-05-06 11:11 53.36629 -2.28248 263 ft 3 kts 314°
2026-05-06 11:11 53.36611 -2.28216 267 ft 4 kts 312°
2026-05-06 11:12 53.36594 -2.28182 270 ft 4 kts 311°
2026-05-06 11:12 53.36576 -2.28150 270 ft 4 kts 312°
2026-05-06 11:12 53.36562 -2.28124 270 ft 3 kts 315°
2026-05-06 11:12 53.36543 -2.28092 267 ft 4 kts 313°
2026-05-06 11:13 53.36525 -2.28059 267 ft 4 kts 313°
2026-05-06 11:13 53.36521 -2.28052 267 ft 0 kts 313°
2026-05-06 11:16 53.36528 -2.28065 267 ft 3 kts 311°
2026-05-06 11:16 53.36550 -2.28130 268 ft 9 kts 274°
2026-05-06 11:16 53.36525 -2.28231 263 ft 7 kts 227°
2026-05-06 11:16 53.36508 -2.28258 263 ft 1 kts 224°
2026-05-06 11:17 53.36497 -2.28275 263 ft 4 kts 224°
2026-05-06 11:17 53.36485 -2.28296 263 ft 1 kts 224°
2026-05-06 11:17 53.36477 -2.28308 263 ft 0 kts 224°
2026-05-06 11:17 53.36472 -2.28315 263 ft 2 kts 224°
2026-05-06 11:18 53.36453 -2.28347 263 ft 6 kts 224°
2026-05-06 11:18 53.36416 -2.28405 263 ft 9 kts 224°
2026-05-06 11:18 53.36355 -2.28452 263 ft 11 kts 172°
2026-05-06 11:18 53.36286 -2.28368 263 ft 14 kts 134°
2026-05-06 11:19 53.36212 -2.28241 263 ft 17 kts 134°
2026-05-06 11:19 53.36121 -2.28091 263 ft 20 kts 137°
2026-05-06 11:19 53.36032 -2.27956 263 ft 18 kts 138°
2026-05-06 11:19 53.35932 -2.27859 264 ft 10 kts 167°
2026-05-06 11:20 53.35847 -2.27857 261 ft 15 kts 185°
2026-05-06 11:20 53.35745 -2.27873 255 ft 10 kts 185°
2026-05-06 11:20 53.35707 -2.27879 253 ft 3 kts 185°
2026-05-06 11:20 53.35661 -2.27886 251 ft 10 kts 185°
2026-05-06 11:21 53.35569 -2.27902 246 ft 17 kts 186°
2026-05-06 11:21 53.35480 -2.27921 248 ft 11 kts 196°
2026-05-06 11:21 53.35402 -2.28009 245 ft 16 kts 224°
2026-05-06 11:21 53.35313 -2.28153 243 ft 20 kts 224°
2026-05-06 11:22 53.35208 -2.28344 240 ft 24 kts 231°
2026-05-06 11:22 53.35096 -2.28579 237 ft 26 kts 231°
2026-05-06 11:22 53.34987 -2.28791 236 ft 12 kts 226°
2026-05-06 11:22 53.34955 -2.28847 234 ft 7 kts 226°
2026-05-06 11:23 53.34895 -2.28952 234 ft 16 kts 226°
2026-05-06 11:23 53.34822 -2.29081 231 ft 9 kts 227°
2026-05-06 11:23 53.34772 -2.29178 228 ft 12 kts 230°
2026-05-06 11:23 53.34748 -2.29227 226 ft 7 kts 230°
2026-05-06 11:24 53.34713 -2.29292 224 ft 0 kts 218°
2026-05-06 11:24 53.34707 -2.29299 227 ft 2 kts 214°
2026-05-06 11:24 53.34698 -2.29308 224 ft 1 kts 209°
2026-05-06 11:24 53.34686 -2.29318 219 ft 3 kts 203°
2026-05-06 11:25 53.34662 -2.29331 220 ft 4 kts 195°
2026-05-06 11:25 53.34630 -2.29339 223 ft 6 kts 182°
2026-05-06 11:25 53.34573 -2.29316 224 ft 11 kts 150°
2026-05-06 11:25 53.34559 -2.29187 224 ft 13 kts 67°
2026-05-06 11:26 53.34571 -2.29156 226 ft 4 kts 53°
2026-05-06 11:26 53.34598 -2.29095 231 ft 18 kts 53°
2026-05-06 11:26 53.34823 -2.28623 238 ft 84 kts 50°
2026-05-06 11:26 53.35317 -2.27610 250 ft 140 kts 51°
2026-05-06 11:27 53.36039 -2.26147 386 ft 176 kts 50°
2026-05-06 11:27 53.36832 -2.24509 973 ft 181 kts 51°
2026-05-06 11:27 53.37571 -2.22932 1806 ft 178 kts 52°
2026-05-06 11:27 53.38340 -2.21274 2458 ft 184 kts 52°
2026-05-06 11:28 53.39151 -2.19528 2856 ft 200 kts 52°
2026-05-06 11:28 53.40039 -2.17631 3312 ft 213 kts 52°
2026-05-06 11:28 53.40983 -2.15620 3713 ft 232 kts 52°
2026-05-06 11:28 53.42002 -2.13447 4226 ft 249 kts 51°
2026-05-06 11:29 53.43085 -2.11137 5002 ft 254 kts 51°
2026-05-06 11:29 53.44192 -2.08773 5945 ft 256 kts 50°
2026-05-06 11:29 53.45301 -2.06408 6820 ft 259 kts 49°
2026-05-06 11:29 53.46432 -2.04006 7647 ft 264 kts 49°
2026-05-06 11:30 53.47572 -2.01582 8463 ft 270 kts 49°
2026-05-06 11:30 53.48750 -1.99094 9313 ft 275 kts 49°
2026-05-06 11:30 53.49962 -1.96566 10130 ft 282 kts 49°
2026-05-06 11:30 53.51111 -1.93801 10774 ft 298 kts 62°
2026-05-06 11:31 53.51705 -1.90366 11219 ft 319 kts 81°
2026-05-06 11:31 53.51823 -1.86543 11684 ft 339 kts 90°
2026-05-06 11:31 53.51540 -1.82496 12110 ft 359 kts 101°
2026-05-06 11:31 53.50876 -1.78326 12532 ft 378 kts 106°
2026-05-06 11:32 53.50086 -1.74009 13000 ft 394 kts 107°
2026-05-06 11:32 53.49266 -1.69577 13760 ft 401 kts 107°
2026-05-06 11:32 53.48445 -1.65062 14526 ft 405 kts 106°
2026-05-06 11:32 53.47630 -1.60505 15311 ft 409 kts 106°
2026-05-06 11:33 53.46807 -1.55890 16100 ft 413 kts 106°
2026-05-06 11:33 53.45981 -1.51273 16834 ft 418 kts 107°
2026-05-06 11:33 53.45138 -1.46576 17580 ft 423 kts 107°
2026-05-06 11:33 53.44283 -1.41816 18362 ft 427 kts 107°
2026-05-06 11:34 53.43418 -1.37023 19000 ft 431 kts 107°
2026-05-06 11:34 53.42542 -1.32187 19614 ft 436 kts 107°
2026-05-06 11:34 53.41655 -1.27298 20277 ft 440 kts 107°
2026-05-06 11:34 53.40773 -1.22432 20950 ft 443 kts 107°
2026-05-06 11:35 53.39868 -1.17456 21597 ft 447 kts 108°
2026-05-06 11:35 53.38952 -1.12443 22215 ft 451 kts 108°
2026-05-06 11:35 53.38027 -1.07391 22878 ft 455 kts 108°
2026-05-06 11:35 53.37093 -1.02306 23514 ft 459 kts 108°
2026-05-06 11:36 53.36154 -0.97196 23999 ft 464 kts 108°
2026-05-06 11:36 53.35198 -0.92015 24495 ft 468 kts 108°
2026-05-06 11:36 53.34236 -0.86819 25014 ft 471 kts 108°
2026-05-06 11:36 53.33260 -0.81559 25532 ft 474 kts 108°
2026-05-06 11:37 53.32274 -0.76265 26042 ft 478 kts 109°
2026-05-06 11:37 53.31282 -0.70956 26564 ft 481 kts 109°
2026-05-06 11:37 53.30279 -0.65595 27061 ft 484 kts 109°
2026-05-06 11:37 53.29280 -0.60273 27536 ft 488 kts 109°
2026-05-06 11:38 53.28264 -0.54870 28024 ft 491 kts 109°
2026-05-06 11:38 53.27233 -0.49408 28504 ft 494 kts 109°
2026-05-06 11:38 53.26193 -0.43915 29127 ft 494 kts 109°
2026-05-06 11:38 53.25152 -0.38431 29867 ft 492 kts 109°
2026-05-06 11:39 53.24120 -0.33018 30556 ft 489 kts 109°
2026-05-06 11:39 53.23090 -0.27624 31162 ft 487 kts 109°
2026-05-06 11:39 53.22067 -0.22278 31751 ft 485 kts 109°
2026-05-06 11:39 53.21024 -0.16842 32342 ft 484 kts 109°
2026-05-06 11:40 53.19996 -0.11499 32921 ft 483 kts 109°
2026-05-06 11:40 53.18965 -0.06161 33490 ft 482 kts 110°
2026-05-06 11:40 53.17935 -0.00848 34047 ft 481 kts 110°
2026-05-06 11:40 53.16908 0.04438 34507 ft 480 kts 110°
2026-05-06 11:41 53.15875 0.09733 34947 ft 479 kts 110°
2026-05-06 11:41 53.14843 0.15006 35369 ft 479 kts 110°
2026-05-06 11:41 53.13825 0.20203 35759 ft 479 kts 110°
2026-05-06 11:41 53.12787 0.25491 36111 ft 480 kts 110°
2026-05-06 11:42 53.11748 0.30764 36470 ft 480 kts 110°
2026-05-06 11:42 53.10704 0.36051 36838 ft 480 kts 110°
2026-05-06 11:42 53.09663 0.41317 37160 ft 480 kts 110°
2026-05-06 11:42 53.08618 0.46578 37461 ft 481 kts 110°
2026-05-06 11:43 53.07564 0.51869 37732 ft 482 kts 110°
2026-05-06 11:43 53.06505 0.57179 37977 ft 484 kts 110°
2026-05-06 11:43 53.05440 0.62502 38183 ft 486 kts 110°
2026-05-06 11:44 53.03291 0.73200 38657 ft 488 kts 110°
2026-05-06 11:44 53.02206 0.78577 38822 ft 490 kts 110°
2026-05-06 11:44 53.01131 0.83894 38967 ft 491 kts 110°
2026-05-06 11:44 53.00033 0.89308 38976 ft 492 kts 110°
2026-05-06 11:45 52.97872 0.99909 38995 ft 492 kts 111°
2026-05-06 11:45 52.95524 1.10555 38994 ft 491 kts 112°
2026-05-06 11:46 52.93088 1.21196 38991 ft 491 kts 112°
2026-05-06 11:46 52.90668 1.31770 38996 ft 491 kts 112°
2026-05-06 11:47 52.88244 1.42355 38996 ft 491 kts 112°
2026-05-06 11:47 52.85817 1.52918 38989 ft 491 kts 112°
2026-05-06 11:48 52.83376 1.63498 38990 ft 491 kts 113°
2026-05-06 11:48 52.80950 1.73955 38992 ft 491 kts 113°
2026-05-06 11:49 52.78491 1.84500 38985 ft 492 kts 113°
2026-05-06 11:49 52.75996 1.95146 38989 ft 501 kts 113°
2026-05-06 11:50 52.73464 2.05899 38971 ft 501 kts 113°
2026-05-06 11:50 52.70945 2.16549 38977 ft 500 kts 113°
2026-05-06 11:51 52.68425 2.27149 38976 ft 500 kts 113°
2026-05-06 11:51 52.65890 2.37756 38977 ft 500 kts 113°
2026-05-06 11:52 52.63337 2.48391 38969 ft 500 kts 114°
2026-05-06 11:52 52.60775 2.59019 38969 ft 499 kts 114°
2026-05-06 11:53 52.58208 2.69613 38965 ft 498 kts 114°
2026-05-06 11:53 52.56074 2.78369 38966 ft 498 kts 114°
2026-05-06 11:54 52.53320 2.88784 38955 ft 497 kts 117°
2026-05-06 11:54 52.50341 2.99035 38948 ft 497 kts 117°
2026-05-06 11:55 52.47349 3.09294 38946 ft 497 kts 118°
2026-05-06 11:55 52.44355 3.19521 38952 ft 496 kts 118°
2026-05-06 11:56 52.41372 3.29669 38951 ft 496 kts 118°
2026-05-06 11:56 52.38360 3.39875 38943 ft 496 kts 118°
2026-05-06 11:57 52.35340 3.50065 38936 ft 496 kts 118°
2026-05-06 11:57 52.32317 3.60227 38931 ft 496 kts 118°
2026-05-06 11:58 52.29272 3.70412 38932 ft 496 kts 118°
2026-05-06 11:58 52.26259 3.80452 38921 ft 496 kts 118°
2026-05-06 11:59 52.23206 3.90580 38921 ft 496 kts 118°
2026-05-06 11:59 52.20143 4.00703 38900 ft 497 kts 118°
2026-05-06 12:00 52.17072 4.10807 38909 ft 497 kts 119°
2026-05-06 12:00 52.13989 4.20904 38901 ft 497 kts 119°
2026-05-06 12:01 52.10900 4.30982 38902 ft 497 kts 119°
2026-05-06 12:01 52.07801 4.41050 38894 ft 496 kts 119°
2026-05-06 12:02 52.04701 4.51082 38885 ft 496 kts 119°
2026-05-06 12:02 52.01587 4.61114 38897 ft 496 kts 119°
2026-05-06 12:03 51.98492 4.71049 38883 ft 496 kts 119°
2026-05-06 12:03 51.95370 4.81026 38882 ft 496 kts 119°
2026-05-06 12:04 51.92221 4.91055 38867 ft 496 kts 120°
2026-05-06 12:04 51.89080 5.01013 38874 ft 495 kts 120°
2026-05-06 12:05 51.85937 5.10931 38875 ft 495 kts 120°
2026-05-06 12:05 51.82788 5.20832 38877 ft 495 kts 120°
2026-05-06 12:06 51.79628 5.30727 38873 ft 495 kts 120°
2026-05-06 12:06 51.76471 5.40578 38868 ft 495 kts 120°
2026-05-06 12:07 51.73309 5.50402 38870 ft 494 kts 120°
2026-05-06 12:07 51.70132 5.60232 38870 ft 494 kts 120°
2026-05-06 12:08 51.66979 5.69950 38860 ft 494 kts 120°
2026-05-06 12:08 51.63798 5.79721 38868 ft 493 kts 121°
2026-05-06 12:09 51.60614 5.89460 38867 ft 492 kts 121°
2026-05-06 12:09 51.57421 5.99189 38871 ft 492 kts 121°
2026-05-06 12:10 51.54223 6.08896 38872 ft 492 kts 121°
2026-05-06 12:10 51.51012 6.18545 38870 ft 492 kts 122°
2026-05-06 12:11 51.47409 6.27745 38858 ft 490 kts 127°
2026-05-06 12:11 51.43602 6.36725 38870 ft 491 kts 127°
2026-05-06 12:12 51.39801 6.45671 38851 ft 491 kts 127°
2026-05-06 12:12 51.36002 6.54589 38854 ft 491 kts 127°
2026-05-06 12:13 51.32170 6.63558 38844 ft 491 kts 127°
2026-05-06 12:13 51.28356 6.72456 38839 ft 491 kts 127°
2026-05-06 12:14 51.24542 6.81324 38843 ft 491 kts 128°
2026-05-06 12:14 51.20663 6.90307 38839 ft 491 kts 128°
2026-05-06 12:15 51.16794 6.99243 38835 ft 491 kts 128°
2026-05-06 12:15 51.12930 7.08132 38840 ft 491 kts 128°
2026-05-06 12:16 51.09033 7.17072 38815 ft 489 kts 128°
2026-05-06 12:16 51.05155 7.25934 38815 ft 488 kts 128°
2026-05-06 12:17 51.01288 7.34741 38817 ft 488 kts 128°
2026-05-06 12:17 50.97453 7.43448 38814 ft 488 kts 128°
2026-05-06 12:18 50.93593 7.52186 38813 ft 487 kts 128°
2026-05-06 12:18 50.89718 7.60923 38797 ft 488 kts 128°
2026-05-06 12:19 50.85774 7.69624 38799 ft 487 kts 131°
2026-05-06 12:19 50.81398 7.77693 38795 ft 484 kts 137°
2026-05-06 12:20 50.76561 7.85072 38794 ft 483 kts 140°
2026-05-06 12:20 50.71725 7.92262 38789 ft 483 kts 140°
2026-05-06 12:21 50.66859 7.99489 38783 ft 484 kts 140°
2026-05-06 12:21 50.61970 8.06805 38793 ft 485 kts 138°
2026-05-06 12:22 50.57453 8.14689 38785 ft 488 kts 132°
2026-05-06 12:22 50.53261 8.22956 38785 ft 488 kts 131°
2026-05-06 12:23 50.49063 8.31208 38785 ft 488 kts 132°
2026-05-06 12:23 50.44824 8.39506 38768 ft 489 kts 132°
2026-05-06 12:24 50.40554 8.47829 38788 ft 490 kts 132°
2026-05-06 12:24 50.36157 8.55948 38776 ft 488 kts 136°
2026-05-06 12:25 50.31565 8.63629 38774 ft 489 kts 136°
2026-05-06 12:25 50.26765 8.71649 38782 ft 490 kts 136°
2026-05-06 12:26 50.22135 8.79365 38784 ft 490 kts 136°
2026-05-06 12:26 50.17532 8.87012 38785 ft 490 kts 136°
2026-05-06 12:27 50.12895 8.94695 38783 ft 490 kts 136°
2026-05-06 12:27 50.08221 9.02416 38764 ft 490 kts 136°
2026-05-06 12:28 50.03571 9.10080 38764 ft 487 kts 137°
2026-05-06 12:28 49.98922 9.17711 38781 ft 485 kts 137°
2026-05-06 12:29 49.94315 9.25252 38786 ft 484 kts 137°
2026-05-06 12:29 49.89682 9.32810 38782 ft 484 kts 137°
2026-05-06 12:30 49.85096 9.40270 38786 ft 484 kts 137°
2026-05-06 12:30 49.80505 9.47719 38786 ft 484 kts 137°
2026-05-06 12:31 49.75858 9.55233 38779 ft 484 kts 137°
2026-05-06 12:31 49.71207 9.62736 38790 ft 485 kts 137°
2026-05-06 12:32 49.66547 9.70232 38797 ft 485 kts 137°
2026-05-06 12:32 49.61888 9.77704 38806 ft 485 kts 137°
2026-05-06 12:33 49.57202 9.85196 38809 ft 485 kts 137°
2026-05-06 12:33 49.52570 9.92579 38790 ft 487 kts 137°
2026-05-06 12:34 49.47855 10.00072 38810 ft 490 kts 137°
2026-05-06 12:34 49.43115 10.07587 38816 ft 491 kts 137°
2026-05-06 12:35 49.38397 10.15046 38816 ft 490 kts 137°
2026-05-06 12:35 49.33678 10.22485 38821 ft 490 kts 137°
2026-05-06 12:36 49.28924 10.29942 38810 ft 490 kts 139°
2026-05-06 12:36 49.23902 10.36881 38826 ft 484 kts 145°
2026-05-06 12:37 49.18517 10.42849 38840 ft 480 kts 151°
2026-05-06 12:37 49.12821 10.48083 38856 ft 479 kts 153°
2026-05-06 12:38 49.07100 10.53284 38852 ft 479 kts 153°
2026-05-06 12:38 49.01404 10.58462 38847 ft 476 kts 153°
2026-05-06 12:39 48.95813 10.63530 38847 ft 473 kts 154°
2026-05-06 12:39 48.90218 10.68576 38840 ft 472 kts 154°
2026-05-06 12:40 48.84742 10.73940 38828 ft 475 kts 149°
2026-05-06 12:40 48.80400 10.79087 38828 ft 478 kts 144°
2026-05-06 12:41 48.75565 10.86017 38809 ft 481 kts 138°
2026-05-06 12:41 48.71083 10.93503 38800 ft 482 kts 137°
2026-05-06 12:42 48.66600 11.01016 38788 ft 481 kts 137°
2026-05-06 12:42 48.62118 11.08493 38789 ft 481 kts 137°
2026-05-06 12:43 48.57647 11.15929 38790 ft 481 kts 137°
2026-05-06 12:43 48.53189 11.23323 38784 ft 481 kts 137°
2026-05-06 12:44 48.48706 11.30735 38760 ft 481 kts 137°
2026-05-06 12:44 48.44221 11.38131 38787 ft 484 kts 137°
2026-05-06 12:45 48.39706 11.45558 38786 ft 484 kts 137°
2026-05-06 12:46 48.32932 11.56663 38787 ft 484 kts 137°
2026-05-06 12:46 48.28412 11.64044 38786 ft 484 kts 137°
2026-05-06 12:47 48.23684 11.71101 38778 ft 482 kts 142°
2026-05-06 12:47 48.18823 11.77772 38782 ft 483 kts 142°
2026-05-06 12:48 48.13974 11.84424 38777 ft 483 kts 142°
2026-05-06 12:48 48.09050 11.91164 38768 ft 483 kts 142°
2026-05-06 12:49 48.04101 11.97920 38759 ft 483 kts 142°
2026-05-06 12:49 47.99189 12.04615 38753 ft 480 kts 143°
2026-05-06 12:50 47.94266 12.11298 38758 ft 478 kts 143°
2026-05-06 12:50 47.89339 12.17967 38761 ft 478 kts 143°
2026-05-06 12:51 47.84441 12.24581 38765 ft 478 kts 143°
2026-05-06 12:51 47.79539 12.31184 38762 ft 478 kts 143°
2026-05-06 12:52 47.74608 12.37815 38758 ft 476 kts 143°
2026-05-06 12:52 47.69700 12.44394 38763 ft 475 kts 143°
2026-05-06 12:53 47.64783 12.50941 38757 ft 474 kts 144°
2026-05-06 12:53 47.59638 12.56903 38758 ft 470 kts 150°
2026-05-06 12:54 47.54249 12.62404 38753 ft 470 kts 150°
2026-05-06 12:54 47.48909 12.67873 38763 ft 470 kts 151°
2026-05-06 12:55 47.43538 12.73348 38767 ft 469 kts 151°
2026-05-06 12:55 47.38156 12.78819 38783 ft 470 kts 151°
2026-05-06 12:56 47.32771 12.84281 38792 ft 469 kts 151°
2026-05-06 12:56 47.27387 12.89730 38790 ft 470 kts 151°
2026-05-06 12:57 47.21970 12.95194 38796 ft 473 kts 151°
2026-05-06 12:57 47.16528 13.00673 38839 ft 474 kts 151°
2026-05-06 12:58 47.11089 13.06140 38858 ft 473 kts 151°
2026-05-06 12:58 47.05661 13.11577 38873 ft 473 kts 151°
2026-05-06 12:59 47.00187 13.17039 38877 ft 480 kts 150°
2026-05-06 12:59 46.94653 13.22571 38892 ft 482 kts 150°
2026-05-06 13:00 46.89105 13.28097 38903 ft 483 kts 150°
2026-05-06 13:00 46.83540 13.33623 38927 ft 485 kts 150°
2026-05-06 13:01 46.78059 13.39053 38919 ft 485 kts 150°
2026-05-06 13:01 46.72467 13.44570 38918 ft 486 kts 150°
2026-05-06 13:02 46.66883 13.50065 38898 ft 486 kts 150°
2026-05-06 13:02 46.61296 13.55545 38916 ft 485 kts 150°
2026-05-06 13:03 46.55712 13.61020 38930 ft 485 kts 150°
2026-05-06 13:03 46.50167 13.66439 38917 ft 484 kts 150°
2026-05-06 13:04 46.44676 13.71948 38934 ft 486 kts 148°
2026-05-06 13:04 46.39231 13.77710 38890 ft 485 kts 148°
2026-05-06 13:05 46.33829 13.83408 38923 ft 482 kts 148°
2026-05-06 13:05 46.28426 13.89104 38951 ft 482 kts 148°
2026-05-06 13:06 46.23032 13.94766 38954 ft 481 kts 148°
2026-05-06 13:06 46.17660 14.00391 38964 ft 481 kts 148°
2026-05-06 13:07 46.12280 14.06013 38942 ft 481 kts 149°
2026-05-06 13:07 46.06939 14.11583 38948 ft 478 kts 149°
2026-05-06 13:08 46.01628 14.17107 38951 ft 478 kts 149°
2026-05-06 13:08 45.96260 14.22675 38963 ft 478 kts 149°
2026-05-06 13:09 45.90885 14.28237 38968 ft 478 kts 149°
2026-05-06 13:09 45.85523 14.33772 38948 ft 477 kts 149°
2026-05-06 13:10 45.80177 14.39277 38964 ft 477 kts 149°
2026-05-06 13:10 45.74842 14.44760 38960 ft 477 kts 149°
2026-05-06 13:11 45.69512 14.50228 38961 ft 468 kts 149°
2026-05-06 13:11 45.64305 14.55552 38967 ft 467 kts 149°
2026-05-06 13:12 45.59035 14.60931 38958 ft 466 kts 149°
2026-05-06 13:12 45.53829 14.66233 38966 ft 466 kts 150°
2026-05-06 13:13 45.48573 14.71564 38973 ft 465 kts 150°
2026-05-06 13:13 45.43321 14.76883 38978 ft 466 kts 150°
2026-05-06 13:14 45.38061 14.82199 38970 ft 464 kts 150°
2026-05-06 13:14 45.32828 14.87478 38976 ft 463 kts 150°
2026-05-06 13:15 45.27594 14.92746 38976 ft 464 kts 150°
2026-05-06 13:15 45.22349 14.98008 38974 ft 464 kts 150°
2026-05-06 13:16 45.17103 15.03261 38940 ft 464 kts 150°
2026-05-06 13:16 45.11927 15.08431 38956 ft 463 kts 150°
2026-05-06 13:17 45.06684 15.13660 38964 ft 463 kts 150°
2026-05-06 13:17 45.01495 15.18823 38962 ft 463 kts 150°
2026-05-06 13:18 44.96274 15.24002 38972 ft 463 kts 151°
2026-05-06 13:18 44.90943 15.28697 38964 ft 459 kts 156°
2026-05-06 13:19 44.85304 15.32878 38971 ft 460 kts 158°
2026-05-06 13:19 44.79699 15.37015 38968 ft 459 kts 158°
2026-05-06 13:20 44.74051 15.41176 38975 ft 458 kts 158°
2026-05-06 13:20 44.68428 15.45307 38981 ft 458 kts 158°
2026-05-06 13:21 44.62807 15.49430 38987 ft 458 kts 158°
2026-05-06 13:21 44.57199 15.53533 38986 ft 458 kts 158°
2026-05-06 13:22 44.51540 15.57663 38995 ft 458 kts 158°
2026-05-06 13:22 44.45905 15.61769 38995 ft 457 kts 158°
2026-05-06 13:23 44.40258 15.65874 38990 ft 456 kts 158°
2026-05-06 13:23 44.34647 15.69937 38998 ft 457 kts 158°
2026-05-06 13:24 44.29001 15.74015 38999 ft 457 kts 158°
2026-05-06 13:24 44.23342 15.78093 38993 ft 458 kts 158°
2026-05-06 13:25 44.17684 15.82167 38991 ft 458 kts 158°
2026-05-06 13:25 44.12026 15.86229 38997 ft 458 kts 158°
2026-05-06 13:26 44.06377 15.90278 38991 ft 458 kts 158°
2026-05-06 13:26 44.00712 15.94331 38993 ft 459 kts 158°
2026-05-06 13:27 43.96006 15.97694 38998 ft 459 kts 158°
2026-05-06 13:27 43.90320 16.01748 38975 ft 459 kts 158°
2026-05-06 13:28 43.84630 16.05790 38992 ft 460 kts 157°
2026-05-06 13:28 43.78934 16.09834 39012 ft 460 kts 158°
2026-05-06 13:29 43.73231 16.13874 39013 ft 460 kts 158°
2026-05-06 13:29 43.67526 16.17907 39009 ft 460 kts 158°
2026-05-06 13:30 43.61857 16.21905 39017 ft 460 kts 158°
2026-05-06 13:30 43.56149 16.25925 39033 ft 460 kts 158°
2026-05-06 13:31 43.50441 16.29929 39032 ft 460 kts 158°
2026-05-06 13:31 43.44634 16.33578 39036 ft 458 kts 160°
2026-05-06 13:32 43.38806 16.37176 39031 ft 460 kts 160°
2026-05-06 13:32 43.32962 16.40778 39043 ft 460 kts 160°
2026-05-06 13:33 43.27126 16.44366 39052 ft 461 kts 160°
2026-05-06 13:33 43.21301 16.47939 39049 ft 461 kts 160°
2026-05-06 13:34 43.15441 16.51525 39047 ft 461 kts 160°
2026-05-06 13:34 43.09588 16.55099 39046 ft 461 kts 160°
2026-05-06 13:35 43.03732 16.58668 39039 ft 461 kts 160°
2026-05-06 13:35 42.97887 16.62223 39025 ft 461 kts 160°
2026-05-06 13:36 42.92027 16.65780 39021 ft 460 kts 160°
2026-05-06 13:36 42.86164 16.69330 39022 ft 460 kts 160°
2026-05-06 13:37 42.80281 16.72879 39017 ft 463 kts 160°
2026-05-06 13:37 42.74429 16.76415 39016 ft 464 kts 160°
2026-05-06 13:38 42.68511 16.79979 39021 ft 464 kts 160°
2026-05-06 13:38 42.62612 16.83520 39018 ft 464 kts 160°
2026-05-06 13:39 42.56705 16.87054 39010 ft 464 kts 160°
2026-05-06 13:39 42.50792 16.90587 39018 ft 465 kts 160°
2026-05-06 13:40 42.44900 16.94101 39017 ft 465 kts 160°
2026-05-06 13:40 42.38969 16.97631 39020 ft 465 kts 160°
2026-05-06 13:41 42.33037 17.01156 39012 ft 465 kts 160°
2026-05-06 13:41 42.27105 17.04675 39016 ft 465 kts 160°
2026-05-06 13:42 42.21158 17.08192 39019 ft 468 kts 160°
2026-05-06 13:42 42.15208 17.11709 39022 ft 468 kts 160°
2026-05-06 13:43 42.09254 17.15221 39014 ft 468 kts 160°
2026-05-06 13:43 42.03334 17.18703 39016 ft 468 kts 160°
2026-05-06 13:44 41.97415 17.22177 39025 ft 467 kts 160°
2026-05-06 13:44 41.91447 17.25671 39022 ft 467 kts 160°
2026-05-06 13:45 41.85478 17.29159 39018 ft 467 kts 161°
2026-05-06 13:45 41.76531 17.34376 39025 ft 467 kts 161°
2026-05-06 13:46 41.70567 17.37846 39025 ft 467 kts 161°
2026-05-06 13:46 41.64636 17.41291 39025 ft 468 kts 161°
2026-05-06 13:47 41.58666 17.44751 39023 ft 469 kts 161°
2026-05-06 13:47 41.52673 17.48218 39032 ft 469 kts 161°
2026-05-06 13:48 41.46687 17.51673 39034 ft 469 kts 161°
2026-05-06 13:48 41.40704 17.55120 39027 ft 469 kts 161°
2026-05-06 13:49 41.34755 17.58541 39024 ft 469 kts 161°
2026-05-06 13:49 41.28763 17.61981 39031 ft 469 kts 161°
2026-05-06 13:50 41.22761 17.65418 39025 ft 469 kts 161°
2026-05-06 13:50 41.16759 17.68846 39037 ft 469 kts 161°
2026-05-06 13:51 41.10764 17.72258 39032 ft 469 kts 161°
2026-05-06 13:51 41.04767 17.75667 39040 ft 470 kts 161°
2026-05-06 13:52 40.98757 17.79077 39037 ft 471 kts 161°
2026-05-06 13:52 40.92763 17.82472 39044 ft 471 kts 161°
2026-05-06 13:53 40.86742 17.85877 38985 ft 472 kts 161°
2026-05-06 13:53 40.83714 17.87587 38626 ft 470 kts 161°
2026-05-06 13:53 40.80717 17.89278 37953 ft 470 kts 161°
2026-05-06 13:54 40.77703 17.90976 37110 ft 473 kts 161°
2026-05-06 13:54 40.74650 17.92692 36312 ft 477 kts 161°
2026-05-06 13:54 40.71601 17.94405 35580 ft 479 kts 161°
2026-05-06 13:54 40.68600 17.96205 34852 ft 484 kts 157°
2026-05-06 13:55 40.65642 17.98374 34137 ft 490 kts 152°
2026-05-06 13:55 40.62811 18.00904 33343 ft 495 kts 147°
2026-05-06 13:55 40.60162 18.03760 32651 ft 498 kts 141°
2026-05-06 13:55 40.57696 18.06942 31976 ft 500 kts 136°
2026-05-06 13:56 40.55439 18.10431 31301 ft 503 kts 130°
2026-05-06 13:56 40.53362 18.14136 30641 ft 503 kts 128°
2026-05-06 13:56 40.51331 18.17867 30009 ft 502 kts 128°
2026-05-06 13:56 40.49314 18.21593 29252 ft 502 kts 128°
2026-05-06 13:57 40.47287 18.25322 28530 ft 501 kts 128°
2026-05-06 13:57 40.45259 18.29032 27843 ft 499 kts 128°
2026-05-06 13:57 40.43253 18.32682 27449 ft 496 kts 128°
2026-05-06 13:57 40.41233 18.36347 26965 ft 493 kts 128°
2026-05-06 13:58 40.39221 18.39987 26430 ft 489 kts 128°
2026-05-06 13:58 40.37240 18.43566 25968 ft 483 kts 128°
2026-05-06 13:58 40.35304 18.47054 25510 ft 478 kts 128°
2026-05-06 13:58 40.33367 18.50543 25051 ft 474 kts 128°
2026-05-06 13:59 40.31443 18.54006 24612 ft 470 kts 128°
2026-05-06 13:59 40.29523 18.57457 24150 ft 466 kts 129°
2026-05-06 13:59 40.27629 18.60858 23710 ft 462 kts 129°
2026-05-06 13:59 40.25753 18.64222 23209 ft 458 kts 129°
2026-05-06 14:00 40.23882 18.67573 22717 ft 453 kts 129°
2026-05-06 14:00 40.22036 18.70872 22267 ft 448 kts 128°
2026-05-06 14:00 40.20199 18.74155 21825 ft 444 kts 128°
2026-05-06 14:00 40.18384 18.77399 21365 ft 440 kts 128°
2026-05-06 14:01 40.16576 18.80620 20920 ft 437 kts 128°
2026-05-06 14:01 40.14783 18.83814 20466 ft 434 kts 128°
2026-05-06 14:01 40.13025 18.86948 20034 ft 431 kts 128°
2026-05-06 14:01 40.11265 18.90079 19583 ft 429 kts 128°
2026-05-06 14:02 40.09503 18.93211 19143 ft 426 kts 128°
2026-05-06 14:02 40.07745 18.96319 18681 ft 424 kts 129°
2026-05-06 14:02 40.05868 18.99294 18208 ft 421 kts 134°
2026-05-06 14:02 40.03836 19.02037 17726 ft 417 kts 139°
2026-05-06 14:03 40.01686 19.04541 17263 ft 412 kts 142°
2026-05-06 14:03 39.99519 19.06959 16830 ft 408 kts 142°
2026-05-06 14:03 39.97360 19.09356 16397 ft 405 kts 142°
2026-05-06 14:03 39.95239 19.11711 15962 ft 402 kts 142°
2026-05-06 14:04 39.93143 19.14039 15549 ft 399 kts 141°
2026-05-06 14:04 39.91038 19.16383 15139 ft 396 kts 141°
2026-05-06 14:04 39.88953 19.18708 14730 ft 393 kts 141°
2026-05-06 14:04 39.86878 19.21021 14298 ft 390 kts 141°
2026-05-06 14:05 39.84816 19.23319 13872 ft 388 kts 141°
2026-05-06 14:05 39.82767 19.25600 13392 ft 385 kts 141°
2026-05-06 14:05 39.80739 19.27856 12945 ft 382 kts 141°
2026-05-06 14:05 39.78728 19.30091 12510 ft 378 kts 141°
2026-05-06 14:06 39.76730 19.32310 12079 ft 375 kts 141°
2026-05-06 14:06 39.74743 19.34514 11631 ft 373 kts 142°
2026-05-06 14:06 39.72779 19.36690 11214 ft 370 kts 142°
2026-05-06 14:06 39.70859 19.38817 10923 ft 362 kts 142°
2026-05-06 14:07 39.68996 19.40881 10810 ft 348 kts 142°
2026-05-06 14:07 39.67177 19.42883 10669 ft 336 kts 144°
2026-05-06 14:07 39.65302 19.44549 10548 ft 321 kts 153°
2026-05-06 14:07 39.63323 19.45762 10431 ft 307 kts 162°
2026-05-06 14:08 39.61350 19.46674 10329 ft 294 kts 164°
2026-05-06 14:08 39.59506 19.47631 10225 ft 287 kts 153°
2026-05-06 14:08 39.57968 19.49169 10122 ft 285 kts 135°
2026-05-06 14:08 39.56752 19.51137 9927 ft 287 kts 123°
2026-05-06 14:09 39.56089 19.53540 9569 ft 289 kts 96°
2026-05-06 14:09 39.56147 19.56089 9298 ft 287 kts 81°
2026-05-06 14:09 39.56808 19.58460 8982 ft 283 kts 54°
2026-05-06 14:09 39.58178 19.60178 8674 ft 278 kts 27°
2026-05-06 14:10 39.59912 19.61174 8413 ft 273 kts 18°
2026-05-06 14:10 39.61642 19.62011 8144 ft 273 kts 18°
2026-05-06 14:10 39.63378 19.62868 7875 ft 272 kts 19°
2026-05-06 14:10 39.65123 19.63765 7589 ft 272 kts 20°
2026-05-06 14:11 39.66837 19.64669 7316 ft 271 kts 20°
2026-05-06 14:11 39.68581 19.65602 7028 ft 271 kts 20°
2026-05-06 14:11 39.70297 19.66593 6748 ft 272 kts 25°
2026-05-06 14:11 39.71950 19.67731 6457 ft 272 kts 27°
2026-05-06 14:12 39.73600 19.68912 6168 ft 272 kts 27°
2026-05-06 14:12 39.75225 19.70079 5893 ft 271 kts 28°
2026-05-06 14:12 39.76813 19.71219 5622 ft 270 kts 28°
2026-05-06 14:12 39.78444 19.72387 5326 ft 270 kts 28°
2026-05-06 14:13 39.80058 19.73541 5057 ft 268 kts 28°
2026-05-06 14:13 39.81676 19.74698 4800 ft 268 kts 28°
2026-05-06 14:13 39.83272 19.75851 4515 ft 268 kts 31°
2026-05-06 14:13 39.84587 19.77501 4181 ft 267 kts 62°
2026-05-06 14:14 39.85051 19.79754 3899 ft 261 kts 93°
2026-05-06 14:14 39.84636 19.81921 3617 ft 255 kts 118°
2026-05-06 14:14 39.83773 19.83902 3381 ft 252 kts 122°
2026-05-06 14:14 39.82900 19.85828 3198 ft 246 kts 121°
2026-05-06 14:15 39.82078 19.87683 3185 ft 232 kts 121°
2026-05-06 14:15 39.81316 19.89436 3180 ft 218 kts 122°
2026-05-06 14:15 39.80380 19.90814 3173 ft 198 kts 153°
2026-05-06 14:15 39.79148 19.91255 3199 ft 178 kts 174°
2026-05-06 14:16 39.78334 19.91356 3188 ft 177 kts 175°
2026-05-06 14:16 39.77190 19.91473 3166 ft 161 kts 176°
2026-05-06 14:16 39.76129 19.91586 3151 ft 153 kts 175°
2026-05-06 14:16 39.75089 19.91676 3173 ft 152 kts 179°
2026-05-06 14:17 39.74039 19.91634 2978 ft 152 kts 184°
2026-05-06 14:17 39.73018 19.91547 2739 ft 151 kts 184°
2026-05-06 14:17 39.71991 19.91458 2518 ft 150 kts 184°
2026-05-06 14:17 39.70998 19.91371 2295 ft 150 kts 184°
2026-05-06 14:18 39.69979 19.91284 2066 ft 150 kts 184°
2026-05-06 14:18 39.68966 19.91201 1832 ft 149 kts 184°
2026-05-06 14:18 39.67994 19.91081 1630 ft 149 kts 187°
2026-05-06 14:18 39.67007 19.90886 1384 ft 148 kts 189°
2026-05-06 14:19 39.66021 19.90680 1133 ft 148 kts 187°
2026-05-06 14:19 39.65042 19.90560 844 ft 147 kts 183°
2026-05-06 14:19 39.64055 19.90498 599 ft 146 kts 179°
2026-05-06 14:19 39.63081 19.90551 469 ft 146 kts 172°
2026-05-06 14:20 39.62129 19.90719 298 ft 145 kts 167°
2026-05-06 14:20 39.61213 19.90944 111 ft 144 kts 167°
2026-05-06 14:20 39.60295 19.91186 18 ft 117 kts 167°
2026-05-06 14:20 39.59788 19.91321 18 ft 51 kts 168°
2026-05-06 14:21 39.59522 19.91393 14 ft 34 kts 168°
2026-05-06 14:21 39.59341 19.91443 14 ft 25 kts 168°
2026-05-06 14:21 39.59214 19.91492 14 ft 15 kts 162°
2026-05-06 14:21 39.59181 19.91475 14 ft 2 kts 278°
2026-05-06 14:22 39.59194 19.91464 14 ft 4 kts 342°
2026-05-06 14:22 39.59235 19.91452 14 ft 9 kts 349°
2026-05-06 14:22 39.59312 19.91433 14 ft 15 kts 349°
2026-05-06 14:22 39.59421 19.91406 14 ft 20 kts 349°
2026-05-06 14:23 39.59554 19.91373 15 ft 23 kts 349°
2026-05-06 14:23 39.59708 19.91335 16 ft 25 kts 349°
2026-05-06 14:23 39.59881 19.91292 19 ft 26 kts 349°
2026-05-06 14:23 39.60060 19.91246 18 ft 29 kts 349°
2026-05-06 14:24 39.60215 19.91207 19 ft 21 kts 349°
2026-05-06 14:24 39.60361 19.91170 17 ft 19 kts 349°
2026-05-06 14:24 39.60498 19.91156 16 ft 23 kts
2026-05-06 14:24 39.60586 19.91193 17 ft 12 kts 21°
2026-05-06 14:25 39.60656 19.91215 17 ft 9 kts
2026-05-06 14:25 39.60672 19.91217 17 ft 1 kts 15°
2026-05-06 14:25 39.60677 19.91221 17 ft 1 kts 37°
2026-05-06 14:25 39.60687 19.91236 17 ft 4 kts 55°
2026-05-06 14:26 39.60690 19.91246 17 ft 1 kts 76°
2026-05-06 14:26 39.60695 19.91270 17 ft 5 kts 76°
2026-05-06 14:26 39.60698 19.91288 18 ft 1 kts 79°
2026-05-06 14:26 39.60702 19.91316 17 ft 5 kts 79°
2026-05-06 14:27 39.60703 19.91325 17 ft 0 kts 79°